TimeCST,TemperatureF,Dew PointF,Humidity,Sea Level PressureIn,VisibilityMPH,Wind Direction,Wind SpeedMPH,Gust SpeedMPH,PrecipitationIn,Events,Conditions,WindDirDegrees,DateUTC
7:35 AM,32.0,30.2,93,29.82,1.8,South,8.1,-,N/A,Snow,Light Snow,190,2012-12-06 13:35:00
7:55 AM,32.0,32.0,100,29.81,1.8,SSW,13.8,23.0,N/A,Snow,Light Snow,200,2012-12-06 13:55:00
8:15 AM,32.0,32.0,100,29.80,1.5,South,10.4,19.6,N/A,Snow,Light Snow,190,2012-12-06 14:15:00
8:35 AM,32.0,32.0,100,29.79,1.8,SSW,11.5,23.0,N/A,Snow,Light Snow,200,2012-12-06 14:35:00
8:55 AM,32.0,32.0,100,29.79,2.0,SSW,9.2,20.7,N/A,Snow,Light Snow,200,2012-12-06 14:55:00
9:15 AM,32.0,32.0,100,29.77,2.5,SSW,10.4,18.4,N/A,Snow,Light Snow,200,2012-12-06 15:15:00
9:35 AM,33.8,32.0,93,29.76,1.8,South,11.5,19.6,N/A,Snow,Light Snow,190,2012-12-06 15:35:00
10:15 AM,33.8,32.0,93,29.77,4.0,SSW,9.2,17.3,N/A,Snow,Light Snow,200,2012-12-06 16:15:00
10:35 AM,33.8,32.0,93,29.77,7.0,SSW,11.5,18.4,N/A,,Overcast,210,2012-12-06 16:35:00
10:55 AM,33.8,32.0,93,29.77,7.0,SSW,8.1,18.4,N/A,,Overcast,210,2012-12-06 16:55:00
11:15 AM,33.8,32.0,93,29.76,5.0,SSW,8.1,19.6,N/A,,Overcast,210,2012-12-06 17:15:00
11:35 AM,33.8,32.0,93,29.75,5.0,SSW,10.4,19.6,N/A,,Overcast,210,2012-12-06 17:35:00
11:55 AM,33.8,32.0,93,29.75,4.0,SW,8.1,19.6,N/A,,Overcast,220,2012-12-06 17:55:00
12:15 PM,33.8,32.0,93,29.73,3.0,SSW,10.4,20.7,N/A,,Overcast,210,2012-12-06 18:15:00
12:35 PM,33.8,32.0,93,29.72,3.0,SSW,9.2,18.4,N/A,,Overcast,210,2012-12-06 18:35:00
12:55 PM,33.8,32.0,93,29.72,3.0,SSW,8.1,18.4,N/A,,Overcast,210,2012-12-06 18:55:00
1:15 PM,33.8,32.0,93,29.72,3.0,SW,10.4,-,N/A,,Overcast,220,2012-12-06 19:15:00
1:55 PM,33.8,33.8,100,29.71,4.0,SW,8.1,17.3,N/A,,Overcast,220,2012-12-06 19:55:00
2:15 PM,33.8,33.8,100,29.71,4.0,SW,9.2,-,N/A,,Overcast,220,2012-12-06 20:15:00
2:35 PM,35.6,33.8,93,29.72,3.0,SW,5.8,-,N/A,,Overcast,230,2012-12-06 20:35:00
2:55 PM,35.6,33.8,93,29.72,3.0,SW,5.8,-,N/A,,Overcast,230,2012-12-06 20:55:00
3:15 PM,35.6,33.8,93,29.72,4.0,SW,4.6,-,N/A,,Overcast,230,2012-12-06 21:15:00
3:35 PM,35.6,33.8,93,29.72,5.0,SW,6.9,-,N/A,,Overcast,230,2012-12-06 21:35:00
3:55 PM,35.6,33.8,93,29.73,7.0,SW,4.6,-,N/A,,Overcast,230,2012-12-06 21:55:00
4:15 PM,35.6,33.8,93,29.73,7.0,SW,5.8,-,N/A,,Overcast,220,2012-12-06 22:15:00
4:35 PM,35.6,33.8,93,29.73,7.0,Calm,Calm,-,N/A,,Overcast,0,2012-12-06 22:35:00
4:55 PM,35.6,33.8,93,29.74,7.0,West,3.5,-,N/A,,Overcast,280,2012-12-06 22:55:00
5:15 PM,35.6,33.8,93,29.75,10.0,WNW,4.6,-,N/A,,Overcast,300,2012-12-06 23:15:00
5:35 PM,35.6,32.0,87,29.75,10.0,WNW,5.8,-,N/A,,Overcast,290,2012-12-06 23:35:00
5:55 PM,35.6,32.0,87,29.76,10.0,WNW,6.9,-,N/A,,Overcast,290,2012-12-06 23:55:00
6:15 PM,35.6,32.0,87,29.77,10.0,West,5.8,-,N/A,,Overcast,270,2012-12-07 00:15:00
6:35 PM,33.8,32.0,93,29.77,10.0,West,4.6,-,N/A,,Overcast,270,2012-12-07 00:35:00
6:55 PM,33.8,30.2,87,29.77,10.0,West,5.8,-,N/A,,Overcast,280,2012-12-07 00:55:00
7:15 PM,33.8,30.2,87,29.78,10.0,West,3.5,-,N/A,,Overcast,280,2012-12-07 01:15:00
7:35 PM,33.8,30.2,87,29.79,10.0,West,8.1,-,N/A,,Overcast,270,2012-12-07 01:35:00
7:55 PM,33.8,30.2,87,29.79,10.0,West,9.2,16.1,N/A,,Overcast,280,2012-12-07 01:55:00
8:15 PM,33.8,28.4,81,29.80,10.0,WNW,10.4,19.6,N/A,,Overcast,290,2012-12-07 02:15:00
8:35 PM,33.8,28.4,81,29.82,10.0,WNW,3.5,16.1,N/A,,Overcast,290,2012-12-07 02:35:00
9:15 PM,32.0,28.4,87,29.81,10.0,West,5.8,-,N/A,,Overcast,280,2012-12-07 03:15:00
9:35 PM,32.0,28.4,87,29.83,10.0,WNW,10.4,-,N/A,,Overcast,290,2012-12-07 03:35:00
9:55 PM,32.0,28.4,87,29.83,10.0,WNW,8.1,-,N/A,,Scattered Clouds,300,2012-12-07 03:55:00
10:15 PM,32.0,28.4,87,29.82,10.0,WNW,6.9,-,N/A,,Clear,290,2012-12-07 04:15:00
10:35 PM,32.0,26.6,80,29.83,10.0,WNW,6.9,-,N/A,,Scattered Clouds,290,2012-12-07 04:35:00
10:55 PM,32.0,26.6,80,29.83,10.0,West,8.1,-,N/A,,Mostly Cloudy,280,2012-12-07 04:55:00
11:15 PM,32.0,26.6,80,29.84,10.0,West,9.2,-,N/A,,Overcast,280,2012-12-07 05:15:00
11:35 PM,30.2,24.8,80,29.84,10.0,West,6.9,-,N/A,,Mostly Cloudy,280,2012-12-07 05:35:00
11:55 PM,30.2,24.8,80,29.84,10.0,WNW,5.8,-,N/A,,Scattered Clouds,290,2012-12-07 05:55:00